Terminal Aerodrome Forecast
Issued by NWS Kansas City/Pleasant Hill, MO

Home | Current Version | Previous Version | Text Only | Print | Product List | Glossary On
Versions: 1 2 3 4 5 6 7 8 9 10 11 12 13 14
000
FTUS43 KEAX 192057 AAA
TAFMCI
TAF AMD
KMCI 192057Z 1921/2018 16015G23KT P6SM FEW050
     FM200300 19014KT P6SM FEW250 WS020/20045KT
     FM201500 22010KT P6SM SCT110=

USA.gov is the U.S. government's official web portal to all federal, state and local government web resources and services.